Date,TemperatureHighF,TemperatureAvgF,TemperatureLowF,DewpointHighF,DewpointAvgF,DewpointLowF,HumidityHigh,HumidityAvg,HumidityLow,PressureMaxIn,PressureMinIn,WindSpeedMaxMPH,WindSpeedAvgMPH,GustSpeedMaxMPH,PrecipitationSumIn
2013-1-1,41,37,29,32,27,17,81,66,53,29.96,29.79,12,6,22,0.00
2013-1-2,32,28,23,18,15,13,67,59,50,30.05,29.95,9,5,17,0.00
2013-1-3,31,29,26,17,16,16,69,60,55,30.16,30.05,10,4,22,0.00
2013-1-4,38,36,35,27,26,25,72,67,60,30.04,29.90,14,11,26,0.00
2013-1-7,44,38,29,32,26,23,82,64,46,30.39,30.26,9,4,19,0.00
2013-1-8,46,42,36,40,36,29,92,80,70,30.43,30.33,11,6,21,0.00
2013-1-9,47,41,30,43,37,28,92,86,74,30.38,30.09,11,4,22,0.00
2013-1-10,48,42,35,38,28,24,83,58,40,30.53,30.16,12,5,25,0.00
2013-1-11,47,40,30,46,36,26,96,84,74,30.52,30.10,8,3,17,0.26
2013-1-12,48,46,44,46,45,43,97,97,96,30.15,30.02,10,4,19,0.08
2013-1-13,44,42,41,43,42,41,98,98,97,30.16,30.10,3,1,6,0.00
2013-1-14,58,50,38,56,43,31,99,78,55,30.25,30.01,10,5,19,0.04
2013-1-15,40,38,36,35,33,30,94,81,70,30.31,30.19,7,3,16,0.12
2013-1-16,40,37,35,39,36,32,97,94,84,30.20,29.74,9,4,16,0.65
2013-1-17,44,40,33,37,33,27,93,77,60,30.06,29.88,8,4,17,0.00
2013-1-18,34,28,24,26,13,4,75,54,36,30.49,29.99,13,6,23,0.00
2013-1-19,47,43,32,41,34,20,83,71,59,30.42,29.94,15,11,32,0.00
2013-1-20,53,45,32,41,31,15,83,62,25,29.99,29.66,14,9,28,0.00
2013-1-21,33,30,26,29,18,10,93,66,42,30.10,29.78,7,4,15,0.00
2013-1-22,28,21,14,26,9,-4,92,59,38,30.15,29.78,14,7,27,0.00
2013-1-23,20,15,11,2,0,-4,63,49,41,30.21,30.12,11,6,25,0.00
2013-1-24,22,16,8,7,2,0,75,55,40,30.33,30.11,15,6,29,0.00
2013-1-25,26,20,12,19,9,2,90,65,41,30.38,30.03,7,4,15,0.00
2013-1-26,26,22,17,18,12,4,89,66,46,30.32,30.00,11,6,25,0.00
2013-1-27,34,25,15,14,10,7,77,55,36,30.48,30.32,11,5,25,0.00
2013-1-28,38,31,20,36,25,12,94,81,62,30.47,29.99,8,3,17,0.13
2013-1-29,45,38,34,42,36,33,96,91,76,30.16,29.97,8,3,15,0.00
2013-1-30,54,50,43,53,48,42,97,96,93,30.10,29.44,19,9,34,0.00
2013-1-31,56,46,31,54,34,14,100,66,38,29.73,29.09,27,16,47,0.38
2013-2-1,32,30,25,17,11,5,56,46,36,30.17,29.73,16,9,29,0.00
2013-2-2,31,27,22,23,15,8,89,61,49,30.29,30.06,12,7,24,0.00
2013-2-3,27,24,23,23,22,21,92,89,81,30.06,29.93,5,2,11,0.00
2013-2-4,32,29,25,15,12,9,65,50,40,29.97,29.86,13,8,25,0.00
2013-2-5,32,30,27,30,26,14,92,86,55,29.97,29.88,8,3,17,0.00
2013-2-6,41,34,29,30,24,8,94,70,40,30.33,29.89,12,5,24,0.04
2013-2-7,30,27,25,13,8,2,55,44,32,30.48,30.33,6,4,13,0.00
2013-2-10,26,26,26,13,13,12,57,57,57,30.44,30.44,5,3,10,0.00
2013-2-11,47,43,40,46,42,37,98,96,91,30.16,29.64,16,5,29,0.58
2013-2-12,45,39,35,42,32,26,98,78,52,29.93,29.67,11,5,27,0.00
2013-2-13,41,35,29,30,27,24,90,73,55,29.93,29.65,5,2,14,0.00
2013-2-14,44,36,30,37,31,24,95,81,47,30.00,29.68,8,3,14,0.08
2013-2-15,46,41,38,41,39,36,96,91,81,30.03,29.92,10,4,19,0.01
2013-2-16,42,36,30,41,31,26,95,83,68,29.92,29.65,10,6,20,0.00
2013-2-17,32,26,18,27,12,3,92,55,30,29.85,29.53,19,12,41,0.00
2013-2-18,33,26,18,22,10,5,66,51,38,30.21,29.86,15,8,31,0.00
2013-2-19,47,41,32,44,36,20,100,83,61,30.21,29.63,12,6,21,0.33
2013-2-20,41,32,26,39,18,12,93,57,42,29.92,29.64,15,10,30,0.00
2013-2-21,36,29,24,19,16,13,70,58,46,30.23,29.89,14,9,32,0.00
2013-2-22,42,34,26,31,25,18,79,71,56,30.37,30.21,10,5,21,0.00
2013-2-23,42,39,37,40,36,31,98,90,78,30.28,29.76,12,8,22,0.19
2013-2-24,42,38,34,39,36,30,96,90,79,29.90,29.68,11,7,21,0.03
2013-2-25,46,38,31,35,30,26,85,74,54,30.22,29.90,8,4,16,0.00
2013-2-26,44,40,37,37,34,32,93,82,71,30.30,29.95,14,6,27,0.16
2013-2-27,47,43,39,46,42,36,96,94,85,29.94,29.50,21,11,42,0.90
2013-2-28,46,42,38,42,40,35,100,92,84,29.61,29.52,8,2,17,0.10
2013-3-1,46,40,35,37,33,30,94,77,54,29.72,29.55,9,6,18,0.01
2013-3-2,40,37,34,30,28,26,76,69,60,29.73,29.65,11,6,21,0.00
2013-3-3,38,34,31,28,25,22,79,70,54,29.68,29.61,10,7,21,0.00
2013-3-4,43,35,30,25,23,21,69,61,47,29.82,29.67,13,9,25,0.00
2013-3-5,47,39,32,37,28,23,88,67,47,30.02,29.82,11,5,23,0.00
2013-3-6,44,39,35,38,34,32,90,84,70,30.00,29.80,20,12,41,0.08
2013-3-7,40,36,33,34,33,31,94,88,75,29.93,29.82,15,12,40,0.13
2013-3-8,39,36,33,34,32,30,95,89,71,30.09,29.93,10,7,24,0.47
2013-3-9,52,41,32,35,29,22,95,65,31,30.32,30.08,10,6,21,0.00
2013-3-10,44,37,31,36,32,28,93,85,70,30.38,30.30,9,4,16,0.00
2013-3-11,49,42,33,44,40,32,96,91,83,30.32,30.11,8,4,14,0.00
2013-3-12,50,47,44,49,46,43,98,95,92,30.11,29.70,17,8,32,0.53
2013-3-13,46,40,35,45,38,32,97,90,85,29.84,29.76,7,4,17,0.00
2013-3-14,37,34,30,20,16,14,63,48,39,29.90,29.81,16,8,33,0.00
2013-3-15,44,36,29,34,22,12,74,57,39,29.94,29.71,14,6,26,0.00
2013-3-16,40,35,32,31,26,21,93,72,50,29.88,29.74,9,3,20,0.02
2013-3-17,37,33,28,31,21,13,93,63,39,30.29,29.88,11,4,24,0.02
2013-3-18,37,32,28,34,20,11,94,61,42,30.41,30.03,17,8,35,0.16
2013-3-19,42,38,35,40,37,33,95,93,88,30.03,29.59,17,9,37,0.54
2013-3-20,44,37,31,33,25,19,92,63,42,29.84,29.75,16,6,32,0.00
2013-3-21,39,34,29,31,27,24,91,74,60,29.81,29.61,10,5,22,0.00
2013-3-22,42,35,27,26,20,16,90,56,38,29.83,29.66,13,6,26,0.00
2013-3-23,46,39,32,25,22,20,69,52,35,29.87,29.74,14,8,29,0.00
2013-3-24,46,38,31,32,25,20,77,59,43,29.91,29.70,13,5,23,0.00
2013-3-25,42,38,34,34,31,28,93,77,58,29.73,29.41,17,7,34,0.21
2013-3-26,51,42,34,36,30,27,92,64,42,29.82,29.52,9,4,17,0.00
2013-3-27,53,44,34,28,26,20,71,52,29,29.90,29.80,12,5,25,0.00
2013-3-28,49,44,36,36,32,28,76,64,56,30.05,29.89,9,5,20,0.00
2013-3-29,56,46,40,39,34,29,79,63,38,30.09,30.01,11,6,22,0.00
2013-3-30,56,45,36,39,32,22,85,64,29,30.12,30.05,10,6,20,0.00
2013-3-31,49,44,32,45,40,30,95,86,74,30.12,29.62,11,5,24,0.08
2013-4-1,50,45,37,47,42,25,97,89,62,29.84,29.60,12,7,25,0.10
2013-4-2,43,38,32,25,17,12,62,44,28,30.04,29.84,14,7,31,0.00
2013-4-3,46,38,33,18,15,13,50,39,27,30.24,30.03,14,9,30,0.00
2013-4-4,43,38,31,35,24,15,80,58,42,30.37,30.11,10,6,21,0.00
2013-4-5,58,46,40,44,36,24,93,70,30,30.11,29.67,11,5,25,0.04
2013-4-6,48,41,36,33,21,6,76,48,19,30.33,29.91,12,6,22,0.00
2013-4-7,51,45,35,44,39,30,93,81,68,30.31,30.03,14,7,24,0.00
2013-4-8,62,51,45,48,46,44,93,82,56,30.07,29.98,7,4,13,0.00
2013-4-9,81,57,47,52,46,40,100,74,26,30.04,29.89,13,5,26,0.00
2013-4-10,68,53,48,53,47,44,93,82,58,30.00,29.80,11,5,30,0.08
2013-4-11,61,50,45,52,47,40,97,88,70,30.06,29.76,12,6,24,0.04
2013-4-12,46,43,41,42,40,36,100,89,74,30.06,29.69,22,11,41,1.01
2013-4-13,52,45,39,44,40,36,95,85,59,29.97,29.68,10,6,20,0.00
2013-4-14,57,50,44,46,37,27,94,65,34,30.21,29.95,12,6,26,0.00
2013-4-15,51,45,39,42,36,29,93,72,54,30.38,30.21,10,4,16,0.00
2013-4-16,55,49,44,49,46,42,94,88,76,30.38,30.14,15,7,27,0.00
2013-4-17,68,55,47,52,44,33,94,71,27,30.29,30.10,9,5,17,0.01
2013-4-18,57,49,43,49,44,40,93,81,57,30.36,30.11,13,6,22,0.00
2013-4-19,57,54,50,56,53,49,98,96,92,30.12,29.70,19,11,36,0.13
2013-4-20,57,52,46,56,43,30,98,75,39,30.22,29.65,17,7,36,0.17
2013-4-21,54,44,37,34,27,20,72,52,30,30.64,30.22,10,6,23,0.00
2013-4-22,52,45,37,40,36,32,84,72,51,30.66,30.49,16,9,32,0.00
2013-4-23,49,45,42,44,41,35,93,86,76,30.49,30.01,12,8,25,0.02
2013-4-24,55,48,44,48,44,41,100,87,70,30.03,29.89,13,8,25,0.00
2013-4-25,63,52,47,51,42,31,100,70,30,30.26,29.89,10,6,21,0.02
2013-4-26,61,51,39,47,42,37,92,74,52,30.39,30.26,6,3,11,0.00
2013-4-27,60,49,43,48,41,31,96,77,35,30.39,30.31,7,4,13,0.00
2013-4-28,55,46,43,49,44,42,98,94,65,30.33,30.28,5,2,10,0.00
2013-5-9,58,56,53,57,55,52,97,95,94,29.93,29.86,7,4,15,0.07
2013-5-10,71,60,51,61,56,50,98,86,64,29.98,29.91,7,4,14,0.01
2013-5-11,60,57,56,58,56,54,98,95,87,29.91,29.69,15,6,29,0.25
2013-5-12,64,59,54,58,50,30,98,74,33,29.88,29.64,13,6,27,0.03
2013-5-13,57,51,44,39,33,28,66,51,34,30.05,29.88,12,6,26,0.00
2013-5-14,59,49,41,46,37,26,87,64,30,30.07,30.01,10,5,21,0.00
2013-5-15,60,54,49,54,50,46,93,87,70,30.07,29.69,12,5,21,0.00
2013-5-16,69,60,53,57,54,52,96,82,55,29.81,29.67,9,4,19,0.00
2013-5-17,72,60,52,56,48,42,91,67,34,30.19,29.79,8,3,16,0.00
2013-5-18,66,58,53,56,52,49,91,81,67,30.31,30.19,6,4,13,0.00
2013-5-19,58,56,56,56,54,50,97,91,79,30.34,30.17,9,4,17,0.12
2013-5-20,66,60,56,62,59,55,98,96,85,30.17,29.97,10,4,18,0.01
2013-5-21,66,62,58,64,60,58,98,95,87,29.97,29.86,8,4,16,0.00
2013-5-22,67,60,54,63,59,54,97,95,82,29.95,29.86,10,4,20,0.00
2013-5-23,66,62,60,63,61,59,98,96,89,29.94,29.79,15,8,28,0.24
2013-5-24,65,58,49,64,57,47,100,95,85,29.84,29.66,11,6,23,0.16
2013-5-25,50,48,46,47,45,42,96,90,79,29.90,29.78,14,9,30,0.16
2013-5-26,65,54,46,45,42,39,88,64,40,30.17,29.87,16,8,32,0.00
2013-5-27,64,57,48,52,47,42,90,72,51,30.21,30.13,10,6,22,0.00
2013-5-28,64,56,50,56,53,48,97,88,66,30.22,30.14,9,3,17,0.36
2013-5-29,65,59,55,60,57,54,97,93,84,30.14,30.01,8,4,15,0.00
2013-5-30,72,65,58,65,61,56,95,87,77,30.11,30.06,9,5,19,0.00
2013-5-31,76,68,62,68,63,60,95,85,74,30.11,30.00,9,5,19,0.00
2013-6-1,71,66,60,65,62,59,95,88,79,30.02,29.93,8,5,19,0.00
2013-6-2,68,64,62,64,62,60,96,94,86,29.95,29.88,7,5,17,0.00
2013-6-3,65,63,60,65,62,60,99,98,97,29.84,29.79,7,3,18,0.34
2013-6-4,72,63,57,65,51,44,99,66,42,30.07,29.82,11,6,25,0.00
2013-6-5,68,59,55,54,50,47,89,73,48,30.19,30.07,8,3,13,0.00
2013-6-7,67,61,59,66,60,58,98,97,97,29.92,29.63,13,8,27,2.54
2013-6-8,70,64,55,65,62,54,98,91,74,30.02,29.48,10,6,23,0.05
2013-6-9,72,64,59,63,61,58,96,91,71,30.15,30.02,8,1,11,0.01
2013-6-10,70,63,60,66,62,59,98,95,85,30.14,29.86,10,6,22,2.45
2013-6-11,74,67,63,68,65,62,99,93,81,29.86,29.59,10,6,22,0.33
2013-6-12,75,69,60,62,56,53,85,64,49,29.83,29.64,12,7,29,0.00
2013-6-13,65,60,56,60,57,53,95,89,75,29.82,29.46,14,6,33,0.64
2013-6-14,70,60,54,58,54,51,96,81,58,29.83,29.46,11,7,28,0.18
2013-6-15,80,68,60,61,56,43,94,70,31,29.96,29.82,9,4,18,0.00
2013-6-16,71,66,58,66,62,56,96,88,75,29.96,29.77,8,3,17,0.00
2013-6-17,76,70,64,69,66,63,97,87,76,29.90,29.82,6,3,15,0.00
2013-6-18,74,66,62,68,64,61,97,92,80,29.90,29.82,9,3,18,0.58
2013-6-19,77,66,60,61,58,48,96,75,37,30.15,29.83,7,5,20,0.00
2013-6-20,72,66,58,62,58,54,88,78,58,30.27,30.15,10,4,17,0.00
2013-6-21,73,67,63,63,61,58,91,80,64,30.30,30.25,8,4,16,0.00
2013-6-22,74,67,63,66,64,61,96,88,71,30.26,30.15,10,4,19,0.00
2013-6-23,76,70,65,70,67,63,97,89,76,30.18,30.07,10,5,21,0.00
2013-6-24,82,74,69,74,70,65,98,87,66,30.08,29.93,9,4,19,0.00
2013-6-25,80,74,67,72,69,64,93,85,75,29.98,29.78,7,4,18,0.00
2013-6-26,82,74,70,72,69,67,94,85,71,29.83,29.74,9,4,21,0.00
2013-6-27,80,73,68,74,70,66,97,91,79,29.82,29.63,9,3,19,0.10
2013-6-28,77,73,70,73,71,69,97,94,86,29.63,29.50,13,8,27,0.00
2013-6-29,77,72,69,73,68,-100,98,91,83,29.72,29.49,11,-8,20,0.01
2013-6-30,73,71,70,72,70,68,97,95,87,29.93,29.72,9,4,18,0.01
2013-7-1,78,73,70,74,71,69,98,95,86,30.08,29.92,11,5,20,0.01
2013-7-2,79,73,72,74,72,70,97,94,83,30.20,30.07,9,6,17,0.02
2013-7-3,77,74,71,74,72,70,97,94,89,30.25,30.18,7,4,15,0.00
2013-7-4,83,75,71,75,72,70,98,91,78,30.25,30.17,9,6,19,0.00
2013-7-5,83,76,71,75,72,69,95,88,77,30.20,30.10,9,6,20,0.00
2013-7-6,77,74,72,73,72,70,95,93,87,30.13,30.10,9,6,19,0.00
2013-7-17,89,80,75,76,74,71,95,83,59,30.16,30.04,8,3,16,0.00
2013-7-18,96,84,76,78,76,74,93,78,55,30.03,29.95,5,3,15,0.00
2013-7-19,87,81,76,79,76,74,95,86,77,29.94,29.79,8,6,20,0.00
2013-7-20,84,79,74,77,74,71,94,86,74,29.83,29.71,8,5,21,0.00
2013-7-21,83,76,72,72,69,65,95,80,58,29.95,29.82,8,3,16,0.00
2013-7-22,80,75,73,76,73,72,97,94,80,29.95,29.76,8,4,17,0.02
2013-7-23,84,77,70,77,74,68,98,90,76,29.75,29.55,9,5,21,0.83
2013-7-24,88,78,71,76,70,61,97,78,57,29.87,29.57,7,3,17,0.00
2013-7-25,73,64,62,62,60,58,95,86,68,30.01,29.87,7,5,17,0.31
2013-7-26,77,66,61,69,64,60,97,92,73,30.04,29.91,8,4,19,0.64
2013-7-27,79,73,68,72,69,67,96,89,75,30.06,29.95,6,3,16,0.00
2013-7-28,80,73,69,72,70,68,97,89,72,29.99,29.92,5,2,11,0.00
2013-7-29,82,76,71,75,72,68,97,86,72,30.05,29.93,6,4,17,0.00
2013-7-30,83,74,64,66,61,57,86,67,42,30.12,30.05,6,4,17,0.00
2013-7-31,81,72,64,67,64,60,90,76,52,30.13,30.04,7,3,15,0.00
2013-8-1,77,71,68,71,68,63,94,88,78,30.04,29.84,9,4,23,0.10
2013-8-2,84,74,69,70,68,64,96,82,52,29.89,29.77,6,4,18,0.22
2013-8-3,77,73,71,70,68,64,91,84,71,29.90,29.83,7,4,19,0.01
2013-8-4,82,72,64,66,62,57,93,71,47,29.90,29.80,7,3,21,0.00
2013-8-5,79,69,60,62,54,48,83,61,36,30.03,29.91,8,4,19,0.00
2013-8-6,77,70,59,66,62,57,93,78,62,30.13,30.02,8,3,17,0.00
2013-8-7,76,70,61,68,64,58,94,82,67,30.15,30.09,8,4,17,0.00
2013-8-8,77,73,70,72,70,68,95,91,83,30.09,30.02,12,6,24,0.17
2013-8-9,78,74,72,74,72,71,96,94,88,30.03,29.79,13,8,26,0.04
2013-8-10,87,76,70,73,68,61,96,77,44,30.02,29.81,6,4,17,0.00
2013-8-11,78,71,61,66,60,54,83,69,50,30.09,30.02,6,3,16,0.00
2013-8-12,77,73,70,71,69,66,95,88,79,30.03,29.92,4,2,9,0.03
2013-8-13,74,70,68,72,69,66,98,95,86,29.92,29.68,6,2,21,0.68
2013-8-14,76,70,64,68,58,53,96,69,46,29.99,29.69,9,4,23,0.00
2013-8-15,79,69,57,60,55,48,88,64,34,30.12,30.00,6,3,17,0.00
2013-8-16,78,71,63,64,61,58,86,71,49,30.19,30.10,6,3,13,0.00
2013-8-17,82,71,61,65,61,58,92,74,48,30.26,30.19,6,2,14,0.00
2013-8-18,74,67,62,66,61,57,92,80,63,30.25,30.11,6,2,13,0.01
2013-8-19,80,70,61,68,64,57,92,81,63,30.10,30.01,7,4,17,0.00
2013-8-20,87,74,64,70,66,61,94,78,45,30.11,30.01,6,3,15,0.00
2013-8-21,87,76,66,73,70,65,96,83,54,30.14,30.06,5,2,14,0.00
2013-8-22,78,73,70,74,71,68,96,92,85,30.05,29.85,7,4,18,0.25
2013-8-23,82,74,67,71,65,56,96,76,40,30.08,29.83,6,3,16,0.00
2013-8-24,75,68,61,63,59,55,91,74,53,30.33,30.08,8,3,17,0.00
2013-8-25,80,69,57,66,62,54,93,79,62,30.36,30.22,7,3,17,0.00
2013-8-26,76,72,70,70,66,61,94,82,72,30.22,29.91,8,6,25,0.34
2013-8-27,83,73,70,73,70,68,96,89,69,29.91,29.79,8,3,19,0.15
2013-8-28,81,73,68,73,70,66,96,90,77,29.88,29.83,5,2,11,0.01
2013-8-29,77,70,65,70,66,62,98,89,75,30.02,29.87,7,4,15,0.00
2013-8-30,77,70,64,70,66,61,94,87,79,30.01,29.86,7,4,19,0.00
2013-8-31,79,74,71,73,71,70,96,91,83,29.87,29.81,6,5,20,0.00
2013-9-1,78,74,72,73,72,70,96,93,86,29.86,29.82,7,4,16,0.00
2013-9-2,75,73,71,74,72,70,98,96,94,29.82,29.70,5,3,14,0.03
2013-9-3,78,71,68,74,69,61,98,94,78,29.84,29.68,6,2,24,2.33
2013-9-4,80,71,61,67,62,58,93,76,51,29.95,29.83,8,4,21,0.00
2013-9-5,77,72,65,66,60,48,90,69,43,30.05,29.89,8,5,20,0.00
2013-9-6,70,63,55,51,49,45,79,62,45,30.22,30.11,6,3,15,0.00
2013-9-7,74,65,53,63,54,49,87,70,51,30.11,29.90,7,3,19,0.00
2013-9-8,81,72,63,66,60,48,89,68,41,30.04,29.78,7,5,18,0.00
2013-9-9,69,63,52,58,50,45,81,64,50,30.23,30.06,6,3,14,0.00
2013-9-10,75,70,66,70,66,59,95,86,76,30.17,30.06,9,5,24,0.11
2013-9-11,81,74,70,73,71,69,96,89,76,30.10,30.00,6,4,18,0.00
2013-9-12,78,73,70,73,71,69,96,92,84,30.00,29.70,9,4,23,0.44
2013-9-13,78,71,62,70,66,56,97,85,63,29.77,29.59,8,3,20,0.03
2013-9-14,69,62,55,56,53,51,89,74,55,30.07,29.77,6,4,15,0.00
2013-9-15,70,62,52,60,52,48,88,73,53,30.17,30.08,5,3,15,0.00
2013-9-16,70,65,59,63,58,44,93,77,55,30.18,30.02,8,4,20,0.01
2013-9-17,63,55,48,46,42,38,81,62,45,30.40,30.19,9,4,22,0.00
2013-9-18,70,59,46,54,48,41,82,68,44,30.33,30.18,6,3,14,0.00
2013-9-19,73,63,52,60,55,50,92,76,56,30.17,30.07,6,3,16,0.00
2013-9-20,74,65,56,64,60,55,95,85,67,30.08,30.00,6,3,14,0.00
2013-9-21,75,68,60,69,65,58,96,90,81,30.01,29.71,10,4,21,0.00
2013-9-22,73,66,56,68,58,44,96,77,49,29.86,29.64,11,5,22,0.48
2013-9-23,65,57,50,46,45,43,80,64,49,30.00,29.85,8,5,20,0.00
2013-9-24,71,58,47,50,46,43,87,66,43,30.01,29.83,7,3,17,0.00
2013-9-25,73,60,49,55,51,45,90,73,46,29.92,29.86,5,2,15,0.00
2013-9-26,63,59,53,59,55,51,94,86,73,30.01,29.92,5,3,14,0.00
2013-9-27,66,59,51,56,53,48,93,80,62,30.24,30.08,6,2,16,0.00
2013-9-28,72,62,54,58,56,52,94,81,59,30.30,30.23,6,3,14,0.00
2013-9-29,68,59,52,57,53,50,94,82,54,30.22,30.08,7,3,17,0.01
2013-9-30,69,62,55,59,57,53,95,87,72,30.07,29.96,5,2,11,0.00
2013-10-1,79,65,53,64,59,52,96,82,45,29.97,29.87,5,2,13,0.01
2013-10-2,82,69,59,66,62,57,95,81,55,29.98,29.87,7,2,20,0.00
2013-10-3,82,68,55,61,57,47,91,71,34,30.09,29.98,5,2,12,0.00
2013-10-4,77,68,61,69,65,59,96,88,73,30.06,29.97,5,2,13,0.00
2013-10-5,72,66,63,65,63,62,97,91,78,30.08,30.00,5,2,11,0.00
2013-10-6,67,64,63,66,63,62,97,96,93,30.12,30.05,8,5,19,0.01
2013-10-7,74,69,64,69,66,56,98,92,77,30.05,29.84,13,6,25,0.02
2013-10-8,67,60,54,55,47,43,85,63,44,30.30,29.92,11,4,29,0.00
2013-10-9,63,59,56,52,49,44,80,70,58,30.37,30.30,10,6,26,0.00
2013-10-10,65,60,56,60,56,50,89,85,78,30.27,30.07,7,6,19,0.00
2013-10-11,68,64,60,61,59,54,91,85,76,30.07,30.00,8,6,20,0.00
2013-10-12,70,62,58,58,53,46,85,72,53,30.28,30.05,13,7,31,0.01
2013-10-13,59,56,55,53,52,51,88,85,78,30.35,30.26,7,6,19,0.00
2013-10-14,62,54,47,52,48,44,92,82,68,30.36,30.25,6,3,14,0.00
2013-10-15,66,56,47,56,50,44,95,82,45,30.25,30.12,7,3,15,0.01
2013-10-16,68,61,56,60,57,52,94,86,77,30.12,29.90,6,2,16,0.00
2013-10-17,70,63,60,64,61,58,96,92,81,29.90,29.72,8,4,16,0.00
2013-10-18,68,63,55,63,52,46,95,70,46,29.95,29.65,11,6,22,0.02
2013-10-19,62,53,46,52,47,43,92,80,62,29.98,29.94,4,1,11,0.00
2013-10-20,65,57,50,60,45,39,93,66,39,30.04,29.71,8,5,21,0.02
2013-10-21,66,56,45,50,44,39,79,64,44,30.14,29.99,7,4,18,0.00
2013-10-22,68,61,52,56,52,46,80,73,61,29.99,29.72,7,5,17,0.00
2013-10-23,53,49,45,45,40,35,88,74,52,29.79,29.59,4,2,11,0.05
2013-10-24,56,48,40,41,35,29,88,63,37,29.95,29.69,9,5,26,0.00
2013-10-25,52,45,37,38,32,30,83,62,44,30.19,29.95,9,5,20,0.00
2013-10-26,56,49,38,43,37,33,83,65,48,30.19,29.90,12,7,33,0.00
2013-10-27,60,53,45,40,36,33,64,53,39,30.08,29.84,11,6,26,0.00
2013-10-28,59,50,39,44,38,32,79,65,49,30.29,30.08,9,4,21,0.00
2013-10-29,56,48,39,38,35,32,76,62,44,30.39,30.29,5,2,14,0.00
2013-10-30,62,51,39,54,45,33,91,78,63,30.34,30.18,4,1,10,0.00
2013-10-31,65,59,51,61,56,49,96,91,84,30.21,29.84,13,6,26,0.02
2013-11-1,66,63,60,63,60,58,95,91,86,29.83,29.56,14,9,32,0.03
2013-11-2,65,59,53,58,53,48,96,83,61,29.73,29.60,5,2,14,0.01
2013-11-3,54,47,38,47,36,25,85,66,50,30.39,29.73,10,6,22,0.00
2013-11-4,47,40,35,31,26,21,69,57,38,30.64,30.39,7,4,17,0.00
2013-11-5,55,47,40,41,37,30,85,69,56,30.65,30.50,6,3,14,0.00
2013-11-6,62,53,40,57,48,37,94,84,67,30.50,30.07,8,3,15,0.00
2013-11-7,61,56,44,60,54,37,97,92,76,30.07,29.71,9,6,26,0.22
2013-11-8,51,44,38,36,31,27,83,62,45,30.17,29.88,10,6,26,0.00
2013-11-9,52,45,37,42,32,28,74,62,48,30.25,30.01,9,5,24,0.00
2013-11-10,61,52,48,44,39,31,78,62,37,30.01,29.75,13,8,37,0.00
2013-11-11,54,49,42,44,35,30,72,58,40,30.15,29.95,11,7,30,0.00
2013-11-12,52,39,32,43,30,20,92,69,58,30.21,29.90,11,8,26,0.07
2013-11-13,38,33,29,21,19,16,68,57,43,30.31,30.21,10,6,23,0.00
2013-11-14,49,42,34,36,28,22,67,57,45,30.25,30.13,14,9,30,0.00
2013-11-15,56,49,44,45,41,33,92,75,61,30.24,30.16,7,5,17,0.00
2013-11-16,57,49,43,49,43,36,94,80,64,30.31,30.21,6,2,12,0.00
2013-11-17,59,55,46,58,54,44,97,95,91,30.27,29.84,8,4,16,0.01
2013-11-18,61,58,54,60,49,32,98,76,40,29.82,29.59,15,8,31,0.20
2013-11-19,52,45,36,35,28,24,64,53,43,30.29,29.71,11,8,28,0.00
2013-11-20,43,36,32,24,22,19,66,56,38,30.59,30.31,8,4,20,0.00
2013-11-21,51,42,33,46,34,24,81,72,64,30.60,30.39,6,3,13,0.00
2013-11-22,55,51,48,52,48,44,96,90,82,30.37,29.87,9,4,19,0.08
2013-11-23,51,44,34,50,32,14,95,63,42,29.95,29.84,13,7,27,0.00
2013-11-24,33,28,25,16,7,-1,54,42,26,30.29,29.90,17,12,37,0.00
2013-11-25,37,29,20,27,16,9,69,58,42,30.45,30.30,9,4,20,0.00
2013-11-26,52,42,36,51,32,23,96,69,51,30.33,29.90,10,6,22,0.30
2013-11-27,60,51,38,60,49,32,97,94,78,29.85,29.26,22,11,41,0.77
2013-11-28,37,33,29,30,19,15,75,57,47,30.46,29.64,13,8,32,0.00
2013-11-29,40,34,29,25,20,16,64,56,45,30.71,30.45,6,3,14,0.00
2013-11-30,43,33,25,36,22,16,75,66,49,30.74,30.39,8,4,17,0.00
2013-12-1,56,47,38,47,42,36,94,84,68,30.37,30.00,11,4,19,0.00
2013-12-2,48,41,36,42,38,35,96,91,78,29.99,29.88,3,1,8,0.01
2013-12-3,51,43,38,42,38,34,95,82,57,29.98,29.84,5,3,12,0.00
2013-12-4,51,42,34,47,38,32,94,86,67,30.14,29.98,4,2,10,0.00
2013-12-5,59,54,49,56,52,47,97,95,89,30.13,29.95,8,4,15,0.00
2013-12-6,55,48,39,54,46,37,100,95,90,30.08,29.88,8,6,18,0.38
2013-12-7,41,37,32,38,31,21,95,79,62,30.47,30.05,9,5,20,0.24
2013-12-8,34,32,28,30,24,21,92,75,63,30.58,30.39,6,3,14,0.00
2013-12-9,50,41,32,49,40,31,100,96,93,30.38,29.87,13,6,30,0.42
2013-12-10,38,34,31,36,32,23,94,89,72,30.07,29.82,8,5,18,0.11
2013-12-11,35,31,28,22,19,17,69,61,55,30.30,30.09,11,9,22,0.00
2013-12-12,30,26,23,19,14,9,73,60,44,30.31,30.14,7,4,16,0.00
2013-12-13,36,30,23,19,14,8,61,51,43,30.32,30.09,13,8,28,0.00
2013-12-14,43,29,22,42,24,16,96,84,63,30.50,29.90,17,8,39,0.45
2013-12-15,53,39,33,52,36,26,97,87,69,29.86,29.40,17,8,33,0.73
2013-12-16,34,30,23,25,16,12,71,57,44,30.21,29.80,9,6,20,0.00
2013-12-17,45,30,22,43,25,12,95,82,62,30.22,29.85,12,5,25,0.29
2013-12-18,37,29,24,26,24,22,92,83,62,29.98,29.85,8,6,20,0.00
2013-12-19,46,38,30,37,30,22,82,73,65,30.16,30.01,10,6,26,0.00
2013-12-20,50,45,40,45,41,36,94,86,72,30.11,29.97,8,4,20,0.00
2013-12-21,53,49,45,50,47,44,96,93,85,30.01,29.91,8,6,18,0.00
2013-12-22,57,53,51,54,52,50,98,96,88,29.98,29.85,12,8,27,0.00
2013-12-23,54,50,41,53,49,40,97,96,93,30.08,29.87,8,4,19,0.47
2013-12-24,41,36,28,38,26,22,92,69,51,30.26,30.04,9,6,21,0.02
2013-12-25,32,25,21,24,13,10,74,61,51,30.51,30.26,8,4,21,0.00
2013-12-26,42,35,30,34,28,24,83,75,65,30.42,30.11,8,4,23,0.00
2013-12-27,40,34,29,27,25,22,83,69,51,30.33,30.24,10,5,22,0.00
2013-12-28,48,42,33,40,36,26,92,81,68,30.27,30.06,11,6,25,0.00
2013-12-29,54,45,42,53,42,38,97,92,86,30.06,29.33,13,6,29,1.22
2013-12-30,45,37,23,40,30,8,96,79,48,30.16,29.63,9,6,22,0.01
2013-12-31,32,26,20,23,15,10,73,64,54,30.23,30.05,8,4,18,0.00
2014-1-1,34,29,24,22,16,10,68,58,49,30.40,30.24,7,4,20,0.00
2014-1-2,32,30,19,31,27,17,95,88,67,30.26,29.63,11,8,24,0.00